FW0153 Weather Reports


time (UTC)temp
C
wind
direction
speed
KPH
gust
KPH
rain 1hr
cm
rain 24hr
cm
rain mn
cm
humidity
%
barometer
mb
20260505040212 23 95 6.4 0.0 0.00 0.00 0.00 80 1012.3
20260505035505 23 160 0.0 0.0 0.00 0.00 0.00 80 1012.0
20260505035004 23 73 6.4 0.0 0.00 0.00 0.00 80 1012.0
20260505034505 23 83 14.5 0.0 0.00 0.00 0.00 79 1012.3
20260505034005 23 80 6.4 0.0 0.00 0.00 0.00 79 1012.3
20260505033505 23 50 14.5 0.0 0.00 0.00 0.00 79 1012.3
20260505033005 23 145 20.9 0.0 0.00 0.00 0.00 78 1012.3
20260505032713 23 80 6.4 0.0 0.00 0.00 0.00 78 1012.3
20260505032005 23 46 6.4 0.0 0.00 0.00 0.00 77 1012.0
20260505031505 23 97 6.4 0.0 0.00 0.00 0.00 77 1012.0
20260505031004 23 66 14.5 0.0 0.00 0.00 0.00 77 1012.0
20260505030505 23 73 20.9 0.0 0.00 0.00 0.00 77 1012.3
20260505030005 23 92 14.5 0.0 0.00 0.00 0.00 77 1012.3
20260505025505 23 34 43.5 0.0 0.00 0.00 0.00 77 1012.0
20260505025212 23 163 20.9 0.0 0.00 0.00 0.00 77 1012.3
20260505024505 23 160 14.5 0.0 0.00 0.00 0.00 77 1012.0
20260505024005 23 111 0.0 0.0 0.00 0.00 0.00 77 1012.0
20260505023505 23 76 6.4 0.0 0.00 0.00 0.00 76 1011.6
20260505023212 23 112 14.5 0.0 0.00 0.00 0.00 76 1012.0
20260505022505 23 90 14.5 0.0 0.00 0.00 0.00 76 1011.6
20260505022005 23 87 6.4 0.0 0.00 0.00 0.00 75 1011.6
20260505021505 23 12 29.0 0.0 0.00 0.00 0.00 75 1011.6
20260505021005 23 125 20.9 0.0 0.00 0.00 0.00 75 1011.3
20260505020505 23 97 0.0 0.0 0.00 0.00 0.00 75 1011.3
20260505020005 23 136 14.5 0.0 0.00 0.00 0.00 74 1011.3
20260505015712 23 71 6.4 0.0 0.00 0.00 0.00 74 1011.3
20260505015005 23 77 6.4 0.0 0.00 0.00 0.00 74 1011.3
20260505014712 23 150 6.4 0.0 0.00 0.00 0.00 73 1011.3
20260505014005 23 80 20.9 0.0 0.00 0.00 0.00 73 1011.3
20260505013505 23 78 0.0 0.0 0.00 0.00 0.00 73 1011.3
20260505013211 23 27 14.5 0.0 0.00 0.00 0.00 73 1011.3
20260505012505 23 19 20.9 0.0 0.00 0.00 0.00 73 1011.0
20260505012005 23 83 6.4 0.0 0.00 0.00 0.00 72 1011.3
20260505011505 23 46 20.9 0.0 0.00 0.00 0.00 72 1011.3
20260505011005 23 102 6.4 0.0 0.00 0.00 0.00 71 1011.6
20260505010505 24 41 20.9 0.0 0.00 0.00 0.00 71 1011.3
20260505010005 24 58 14.5 0.0 0.00 0.00 0.00 71 1011.3
20260505005505 24 59 0.0 0.0 0.00 0.00 0.00 70 1011.3
20260505005213 24 103 29.0 0.0 0.00 0.00 0.00 70 1011.6
20260505004712 25 91 14.5 0.0 0.00 0.00 0.00 70 1011.3
20260505004005 25 52 14.5 0.0 0.00 0.00 0.00 69 1011.3
20260505003712 25 122 6.4 0.0 0.00 0.00 0.00 69 1011.3
20260505003005 25 163 20.9 0.0 0.00 0.00 0.00 68 1011.3
20260505002505 25 92 14.5 0.0 0.00 0.00 0.00 68 1011.3
20260505002213 25 0 0.0 0.0 0.00 0.00 0.00 67 1011.0
20260505001505 25 193 14.5 0.0 0.00 0.00 0.00 67 1011.3
20260505001005 25 132 6.4 0.0 0.00 0.00 0.00 67 1011.3
20260505000505 25 65 20.9 0.0 0.00 0.00 0.00 67 1011.3
20260505000005 25 84 14.5 0.0 0.00 0.00 0.00 66 1011.6
20260504235505 25 117 6.4 0.0 0.00 0.00 0.00 66 1011.6
20260504235005 25 125 6.4 0.0 0.00 0.00 0.00 66 1011.3
20260504234505 25 93 6.4 0.0 0.00 0.00 0.00 66 1011.3
20260504234005 25 118 20.9 0.0 0.00 0.00 0.00 66 1011.6
20260504233505 25 173 6.4 0.0 0.00 0.00 0.00 65 1011.3
20260504233005 25 120 14.5 0.0 0.00 0.00 0.00 65 1011.3
20260504232505 26 116 14.5 0.0 0.00 0.00 0.00 65 1011.3
20260504232005 26 123 6.4 0.0 0.00 0.00 0.00 65 1011.6
20260504231505 26 76 29.0 0.0 0.00 0.00 0.00 64 1011.6
20260504231213 26 323 6.4 0.0 0.00 0.00 0.00 64 1011.3
20260504230505 26 121 14.5 0.0 0.00 0.00 0.00 64 1011.3
20260504230005 26 42 20.9 0.0 0.00 0.00 0.00 64 1011.6
20260504225711 26 86 6.4 0.0 0.00 0.00 0.00 63 1011.6
20260504225005 26 74 20.9 0.0 0.00 0.00 0.00 63 1011.6
20260504224505 26 101 6.4 0.0 0.00 0.00 0.00 62 1011.6
20260504224212 26 152 20.9 0.0 0.00 0.00 0.00 63 1011.6
20260504223505 26 74 20.9 0.0 0.00 0.00 0.00 63 1011.6
20260504223005 26 102 20.9 0.0 0.00 0.00 0.00 62 1011.6
20260504222505 26 71 14.5 0.0 0.00 0.00 0.00 62 1011.6
20260504222005 26 90 14.5 0.0 0.00 0.00 0.00 61 1011.6
20260504221505 26 310 20.9 0.0 0.00 0.00 0.00 62 1011.6
20260504221005 26 120 14.5 0.0 0.00 0.00 0.00 61 1011.6
20260504220504 26 141 43.5 0.0 0.00 0.00 0.00 59 1011.6
20260504220005 27 126 29.0 0.0 0.00 0.00 0.00 58 1011.6
20260504215505 27 150 0.0 0.0 0.00 0.00 0.00 60 1011.6
20260504215212 26 109 6.4 0.0 0.00 0.00 0.00 60 1012.0
20260504214504 26 107 20.9 0.0 0.00 0.00 0.00 60 1011.6
20260504214005 26 104 14.5 0.0 0.00 0.00 0.00 60 1011.6
20260504213505 26 357 6.4 0.0 0.00 0.00 0.00 60 1011.6
20260504213005 27 131 20.9 0.0 0.00 0.00 0.00 60 1011.6
20260504212505 26 116 0.0 0.0 0.00 0.00 0.00 61 1011.6
20260504212005 26 64 37.0 0.0 0.00 0.00 0.00 60 1012.0
20260504211505 26 60 14.5 0.0 0.00 0.00 0.00 61 1012.0
20260504211005 26 47 29.0 0.0 0.00 0.00 0.00 60 1012.3
20260504210505 26 77 51.5 0.0 0.00 0.00 0.00 59 1012.3
20260504210005 26 76 6.4 0.0 0.00 0.00 0.00 60 1012.3
20260504205504 26 63 14.5 0.0 0.00 0.00 0.00 61 1012.3
20260504205214 26 119 14.5 0.0 0.00 0.00 0.00 61 1012.7
20260504204712 26 156 6.4 0.0 0.00 0.00 0.00 61 1012.3
20260504204005 26 98 6.4 0.0 0.00 0.00 0.00 62 1012.7
20260504203505 26 29 20.9 0.0 0.00 0.00 0.00 60 1013.0
20260504203211 26 88 14.5 0.0 0.00 0.00 0.00 61 1012.7
20260504202505 26 81 6.4 0.0 0.00 0.00 0.00 63 1012.7
20260504202211 26 51 6.4 0.0 0.00 0.00 0.00 62 1012.7
20260504201505 26 54 14.5 0.0 0.00 0.00 0.00 62 1013.3
20260504201005 26 119 0.0 0.0 0.00 0.00 0.00 63 1013.3
20260504200505 26 35 0.0 0.0 0.00 0.00 0.00 63 1013.3
20260504200005 26 107 29.0 0.0 0.00 0.00 0.00 63 1013.3
20260504195505 26 23 14.5 0.0 0.00 0.00 0.00 63 1013.3
20260504195005 26 85 14.5 0.0 0.00 0.00 0.00 63 1013.3
20260504194505 26 72 14.5 0.0 0.00 0.00 0.00 63 1013.3
20260504194005 26 163 14.5 0.0 0.00 0.00 0.00 62 1013.3
20260504193504 26 112 14.5 0.0 0.00 0.00 0.00 63 1013.3
20260504193005 25 138 14.5 0.0 0.00 0.00 0.00 64 1013.3
20260504192505 25 94 20.9 0.0 0.00 0.00 0.00 65 1013.3
20260504192005 25 100 6.4 0.0 0.00 0.00 0.00 64 1013.3
20260504191505 25 193 6.4 0.0 0.00 0.00 0.00 64 1013.3
20260504191005 25 108 20.9 0.0 0.00 0.00 0.00 65 1013.3
20260504190505 25 144 6.4 0.0 0.00 0.00 0.00 65 1013.7
20260504190005 26 129 20.9 0.0 0.00 0.00 0.00 64 1013.3
20260504185505 25 118 6.4 0.0 0.00 0.00 0.00 64 1013.3
20260504185005 25 154 14.5 0.0 0.00 0.00 0.00 64 1013.7
20260504184505 25 136 0.0 0.0 0.00 0.00 0.00 64 1013.7
20260504184005 25 75 20.9 0.0 0.00 0.00 0.00 64 1013.7
20260504183505 25 54 20.9 0.0 0.00 0.00 0.00 64 1013.7
20260504183005 25 114 20.9 0.0 0.00 0.00 0.00 65 1013.7
20260504182712 25 52 14.5 0.0 0.00 0.00 0.00 65 1013.7
20260504182005 25 71 29.0 0.0 0.00 0.00 0.00 65 1014.0
20260504181505 25 68 14.5 0.0 0.00 0.00 0.00 65 1014.0
20260504181005 25 43 14.5 0.0 0.00 0.00 0.00 65 1014.0
20260504180711 25 68 14.5 0.0 0.00 0.00 0.00 66 1014.0
20260504180005 25 120 6.4 0.0 0.00 0.00 0.00 66 1014.0
20260504175505 25 98 14.5 0.0 0.00 0.00 0.00 65 1014.0
20260504175005 25 87 20.9 0.0 0.00 0.00 0.00 64 1014.0
20260504174505 25 109 6.4 0.0 0.00 0.00 0.00 64 1014.0
20260504174005 25 126 6.4 0.0 0.00 0.00 0.00 65 1014.0
20260504173505 25 64 0.0 0.0 0.00 0.00 0.00 64 1014.0
20260504173005 25 170 0.0 0.0 0.00 0.00 0.00 64 1014.4
20260504172505 25 42 6.4 0.0 0.00 0.00 0.00 63 1014.4
20260504172212 25 66 6.4 0.0 0.00 0.00 0.00 65 1014.4
20260504171505 25 168 29.0 0.0 0.00 0.00 0.00 65 1014.7
20260504171005 25 94 20.9 0.0 0.00 0.00 0.00 64 1014.7
20260504170505 25 207 20.9 0.0 0.00 0.00 0.00 64 1014.7
20260504151005 24 136 29.0 0.0 0.00 0.00 0.00 68 1015.4
20260504150505 24 124 29.0 0.0 0.00 0.00 0.00 68 1015.4
20260504150211 24 152 20.9 0.0 0.00 0.00 0.00 69 1015.4
20260504141213 23 177 14.5 0.0 0.00 0.00 0.00 72 1015.4
20260504140505 23 98 0.0 0.0 0.00 0.00 0.00 74 1015.4
20260504130505 21 91 0.0 0.0 0.00 0.00 0.00 81 1015.7
20260504110711 20 117 6.4 0.0 0.00 0.00 0.00 86 1015.4
20260504100505 20 119 6.4 0.0 0.00 0.00 0.00 85 1015.7
20260504082005 20 67 0.0 0.0 0.00 0.00 0.00 83 1016.7
20260504081505 20 65 0.0 0.0 0.00 0.00 0.00 83 1016.7
20260504081005 20 79 0.0 0.0 0.00 0.00 0.00 83 1016.7
20260504080504 20 94 0.0 0.0 0.00 0.00 0.00 83 1016.7
20260504050505 20 67 6.4 0.0 0.00 0.00 0.00 75 1018.8
20260504045505 20 71 6.4 0.0 0.00 0.00 0.00 75 1019.5
20260504045005 20 59 14.5 0.0 0.00 0.00 0.00 74 1019.5
20260504044505 20 92 0.0 0.0 0.00 0.00 0.00 74 1019.5
20260504044005 20 71 6.4 0.0 0.00 0.00 0.00 73 1019.5
20260504043505 20 80 6.4 0.0 0.00 0.00 0.00 73 1019.5
20260504043211 20 76 6.4 0.0 0.00 0.00 0.00 73 1019.5
20260504042505 20 36 6.4 0.0 0.00 0.00 0.00 73 1019.8
20260504042005 20 95 14.5 0.0 0.00 0.00 0.00 72 1019.5
20260504041505 20 54 14.5 0.0 0.00 0.00 0.00 72 1019.8
20260504041005 20 74 6.4 0.0 0.00 0.00 0.00 72 1019.5
20260504040505 20 92 0.0 0.0 0.00 0.00 0.00 72 1019.8